Weather in Shyroke

Ukraine / Zaporizhia Region     47°54′47″N   34°54′05″E
temp.,
°C
wind,
m/s
gust,
m/s
humid.,
%
clouds,
%
prec.,
mm/h
press.,
hPa
HPBL,
m
28 november, sun
sun2823:00+8ssw4119859 0.0 1007289
02:00+7ssw4109833 0.0 1007226
05:00+7ssw33960 0.0 100739
08:00+7s34950 0.0 100864
11:00+11s4674100 0.0 1008286
14:00+11se3775100 0.0 1007295
17:00+10se4992100 0.4 1006230
20:00+10ese4998100 4.4 1005249
29 november, mon
mon2923:00+10se3899100 0.3 1004304
02:00+10ssw41098100 0.3 1004418
05:00+10ssw5119799 0.0 1003448
08:00+10sse61297100 0.0 1003472
11:00+11sse91886100 1.4 1000889
14:00+12s91879100 2.7 996673
17:00+13s9197655 3.0 992994
20:00+14ssw11197997 3.3 9901105
30 november, tue
tue3023:00+12sw12197769 0.1 990925
02:00+7w101474100 0.1 995972
05:00+5wsw81167100 0.0 10001049
08:00+3sw711765 0.0 1002689
11:00+5wsw68598 0.0 1003692
14:00+6w4654100 0.0 1001706
17:00+4wnw3660100 0.0 1001692
20:00+4nnw71061100 0.0 998778
1 december, wed
wed123:00+2nw61168100 0.0 1000833
02:00+1wnw6117422 0.0 1001580
05:00−1w511755 0.0 1004419
08:00−1sw51273100 0.0 1005452
11:00+4sw81359100 0.0 10031373
14:00+4wsw81357100 0.0 10021321
17:00+3w71262100 0.0 1004691
20:00+3w5106975 0.0 1006637
2 december, thu
thu223:00+2w378583 0.0 1008201
02:00+1sw488327 0.0 1009185
05:00+1ssw498588 0.0 1010206
08:00+2ssw5138278 0.0 1010327
11:00+7sw8147044 0.0 1010918
14:00+9ssw8137120 0.0 10091010
17:00+8ssw7147955 0.0 1009479
20:00+7sw71482100 0.0 1010488